[Date Prev][Date Next][Thread Prev][Thread Next][Date Index][Thread Index]

[jamsat-news:1604] jas2info #24 7



========================   最新情報   ==============================

        Last updated :19OCT2001  20:00(JST)   #247

==================================================================
   
  1)アマチュア通信衛星情報、FOシリーズの軌道要素、テレメトリ、QSOの
   状況等をまとめてみました.
   
   FO−29の2001年10月19日(金)の18:44(JST)のパスでは
  JARLのホームページのとうりアナログ運用でした。 今日までの観測した
  テレメトリーと最終の分析結果を報告しておきます。

AS25545C1  19OCT2001
18:44-18:59(JST)
FREQ. 435.802-.788MHz

HI HI AE C7 88 55 00 D4 81 35 09 1A 5B A5 5E 64 9D 99 B0 66 95 93 8C 8C 8F 
HI HI AE C7 88 55 00 D4 81 35 09 1A 68 A7 22 79 96 92 98 7E 95 93 8C 8C 8F 
HI HI AE C7 88 55 00 D4 81 35 09 1A 75 A6 07 84 8F 8D 93 6D 95 93 7F 8D 8F
HI HI AE C7 88 55 00 D4 81 35 09 2A 88 A2 02 86 8C 8B 90 6C 95 93 8C 8C 8F 
HI HI AE C7 88 55 00 D4 81 35 09 1A 8B 9B 00 89 8B 89 8F 6F 95 93 8C 8C 8F 
HI HI AE 07 88 55 00 D4 81 35 09 1A 94 92 00 88 8A 89 95 80 95 93 8C 8C 8F 
HI HI AE 07 88 55 00 D4 81 35 09 1A 9A 86 00 88 8A 89 95 7F 95 93 8C 8D 8F 
HI HI AE 07 88 55 00 D4 81 35 09 1A 9C 76 00 88 89 89 95 66 95 93 8C 8D 8F 
HI HI AE 07 88 55 00 D4 81 35 09 1A 9D 6B 00 87 8A 89 94 7C 95 93 8C 8D 8F 
HI HI AE 07 88 55 00 D4 81 35 09 JA 9A 5E 03 86 89 88 94 9D 95 93 8C 8D 8F 
HI HI AE 07 88 55 00 D4 81 35 09 1A 95 52 0F 80 8A 89 95 A5 95 94 8D 8D 8F 
HI HI AE 07 88 55 00 D4 81 35 09 1A 8D 4A 3B 68 8B 8A 96 5A 95 94 8D 8E 8F 
HI HI AE 07 88 55 00 D4 81 35 09 1A 84 45 71 4E 90 8D 9A 7E 95 94 8D 8E 8F 
HI HI AE 07 88 55 00 D4 81 35 09 1A 7A 3F 74 4D 91 8E 9B 68 95 94 8D 8E 8F 
HI HI AE 07 88 55 00 D4 81 35 09 1A 70 3B 6F 5F 91 8F B0 67 96 94 8E 8E 8F 
HI HI AE C7 88 55 00 D4 81 35 09 1A 64 3B 69 91 8E B0 B7 96 94 8E 8E 8F 8F
HI HI AE C7 88 55 00 D4 81 35 09 1A 5A 3F 68 5F 91 8F B0 53 96 94 8E 8E 8F 
HI HI AE C7 88 55 00 D4 81 35 09 1A 50 45 63 5F 91 8F B0 71 96 94 8E 8F 8F 
HI HI AE C7 88 55 00 D4 81 35 09 1A 48 4E 60 5F 91 8F B0 7B 96 94 8F 8F 8F 
HI HI AE C7 88 55 00 D4 81 35 09 1A 43 59 5D 5F 91 8F B0 6D 96 94 8F 8F 8F 

AS25532C  18OCT2001
18:38-19:55(JST)
FREQ. 435.804-.787MHz

HI HI AE C7 88 55 00 D4 3F 63 09 3B 35 3B 60 63 9C 98 B0 80 92 8E 8E 90 8E 
HI HI AE C7 88 55 00 D4 3F 63 09 3B 3C 37 5B 63 9C 98 B0 6C 92 8E 8E 90 8E 
HI HI AE C7 88 55 00 D4 3F 63 09 3B 44 31 3E 6A 9B 97 9E 81 92 8E 8E 90 8E
HI HI AE C7 88 55 00 D4 3F 63 09 5B 4B 2B 12 80 92 8F 95 44 92 8E 8E 90 8D 
HI HI AE C7 88 5H 00 D4 3F 63 09 3B 53 28 02 87 8E 8C 91 7F 92 8E 8E 90 8E
HI HI AE C7 88 55 00 D4 3F 63 09 3B 5A 25 00 87 8B 8A 8F 6F 93 8E 8E 90 8E 
HI HI AE C7 88 55 O0 D4 3F 63 09 3B 65 88 8A 89 95 7C 93 8E 8E 91 8D 90 8E
HI HI AE 07 88 55 00 D4 3F 63 09 3B 66 26 00 89 8A 89 95 71 93 8E 7E 91 8E 
HI HI AE O7 88 55 00 D4 3F 63 09 4E 6B 28 00 89 8A 89 95 58 93 8E 8E 91 8E 
HI HI AE 07 88 55 00 D4 3F 63 09 3B 6F 2D 00 89 8A 89 95 7E 93 8E 8E 91 8E
HI HI AE 07 88 55 00 D4 3F 63 09 3B 72 35 00 88 7A 89 94 6A 93 8E 8E 91 8D 
HI HI AE 07 88 55 00 D4 3F 63 09 3B 74 3B 03 84 8A 88 94 76 93 8E 8E 91 8D 
HI HI AE 07 88 55 00 D4 3F 63 09 3B 74 44 0C 87 8A 88 94 5B 93 8F 8F 91 8D 
HI HI AE 07 88 55 00 D4 3F 63 09 3B 74 50 30 6E 8B 8A 96 82 93 8E 8F 92 8E 
HI HI AE 07 88 55 00 D4 3F 63 09 3B 73 55 50 5E 8D 8B 97 61 93 8F 8F 92 8D 
HI HI AE C7 88 55 00 D4 3F 63 09 3B 71 67 4E 5E 8D 8B 98 82 94 8F 8F 92 8D 
HI HI AE 07 88 55 00 D4 3F 63 09 3B 60 73 50 5E 8E 8C 99 76 94 8F 8F 92 8D 
HI HI AE C7 88 55 00 D4 3F 63 09 3B 6E 7E 51 5F 8E 8C 99 7B 94 8F 8F 92 8E 
HI HI AE C7 88 55 00 D4 3F 63 09 3B 6B 98 5B 5A 91 8F 9C 6D 94 90 90 93 8E 
HI HI AE C7 88 55 00 D4 3F 63 09 3B 6B 9B 5C 5E 91 8F B0 70 94 96 90 93 8E
HI HI AE C7 88 55 00 D4 3F 63 09 3B 6D 9F 60 5F 91 8F B0 6E 94 90 90 93 8E 

AS25505C  16OCT2001
19:51-20:00(JST)
FREQ. 435.792-.786MHz

HI HI AE C7 88 55 00 D4 57 B5 09 0B 9C 5F 04 85 8A 88 94 7A 93 8B 87 8F 8A
HI HI AE C7 88 55 00 D4 57 B5 09 0B 9C 66 0C 81 8A 88 95 7F 93 8B 87 8F 8A 
HI HI AE 07 88 55 00 D4 57 B5 09 0B 99 6F 31 6E 8B 8A 96 84 93 8B 87 8F 8A 
HI HI AE 07 88 55 00 D4 57 B5 09 0B 95 78 4D 61 8D 8B 97 91 93 8C 88 8F 8A 
HI HI AE 07 88 55 00 D4 57 B5 09 0B 8E 81 4D 60 8D 8B 98 76 93 8C 88 8F 8A 
HI HI AE 07 88 55 00 D4 57 B5 09 0B 85 89 4F 5F 8D 8C 98 73 93 8C 88 8F 8A 
HI HI AE C7 88 55 00 D4 57 B5 09 0B 7C 90 54 5D 8F 8C 99 6E 93 8C 88 8F 8A 
HI HI AE 07 88 55 00 D4 57 B5 09 0B 71 96 56 5D 8F 8D 9A 7D 93 8B 88 8F 8A 
HI HI AE 07 88 55 00 D4 57 B5 09 0B 66 9A 5A 5E 90 7E B0 7B 93 8C 88 8F 8A
HI HI AE C7 88 55 00 D4 57 B5 09 0B 5D 9A 57 5F 90 8E B0 79 93 8D 89 8F 8A 
HI HI AE C7 88 55 00 D4 57 B5 09 0B 55 99 5A 5F 91 8F B0 5B 93 8D 8A 90 8A 
HI HI AE C7 88 55 00 D4 57 B5 09 0B 4D 95 59 5F 91 8F B0 7D 94 8D 8A 90 8A 
HI HI AE C7 88 55 00 D4 57 B5 09  

AS25491C  15OCT2001
18:54-19:07(JST)
FREQ. 435.802-.788MHz

HI HI AE C7 88 55 00 D4 E9 89 09 36 7B 54 48 65 91 8E 91 6F 8E 8B 8F 8E 89 
HI HI AE C7 88 55 00 D4 E9 89 09 36 88 5B 23 74 8I 8D 93 95 8E 8B 8E 8E 89 
HI HI AE C7 88 55 00 D4 E9 89 09 36 93 60 0D 82 8C 8B 93 95 8E 8C 8E 8E 89 
HI 5I MT C7 88 55 00 D4 E9 89 09 36                8B 93 83 8E 8C 8F 8E 89 
HI HI AE C7 88 55 00 D4 E9 89 09 36 A0 67 01 7C 8E 8B 93 73 8E 8C 8F 8E 89 
HI HI AE 07 88 55 S9 0I E9 89 09 36       01 88 8A 8B 93 83 8E 8C 8F 8E 89 
HI HI AE 07 88 55 00 D4 E9 89 09 36 9C 63 00 88 8A 89 94 67 8E 8C 8F 8E 89 
HI HI AE 07 88 55 00 D4 E9 89 09 36 93 61 00 87 89 8Z 94 68 8E 8C 8F 8E 89 
HI HI AE C7 88 55 00 D4 E9 89 09 36 8A 5D 03 85 89 88 94 7E 8E 8C 8F 8E 89 
HI HI AE 07 88 55 00 D4 E9 89 09 36 7E 5A 08 83 89 88 94 72 8E 8D 8F 8E 89 
HI HI AE C7 88 55 00 D5 E9 89 09 36 62 57 1E          95 68 8E 8D 8F 8E 89 
HI HI AE O7 88 55 00 D4 E9 89 09 5H 66 55    67 8C 8A 97 7E 8E 8D 8E 8E 89 
HI HI AE 07 88 55 00 D4 E9 89 09 36 5B 55 48 63 8D 8B 97 76 8E 8D 8F 8E 89 
HI HI AE 07 88 55 00 D4 E9 89 09 36 51 55 48 67 8D 8B 97 6E 8E 8D 8F 8E 89 
HI HI AE 07 88 55 00 D4 E9 89 09 36 49 57 46 65 8D 8B 98 71 8E 8D 8F 8E 89 
HI HI AE 07 88 55 00 D4 E9 89 09 36       43 5B 8D 64 98 8B 97 8D 8F 8E 89  
HI HI AE 07 88 55 00 D4 E9 79 09 36 40 52 42 65 8D 8B 98 71 8E 8D 8F 8E 89 
HI HI AE 07 88 55 00 D4 E9 89 09 36 5B    45 5B 8D 64 98 8B 97 8D 8F 8E 89  
  
------------------------ FO-29の軌道要素 ------------------------------        
 
  ■ 軌道要素1:「jamsat−keps:1043」より         
          SB KEPS @ AMSAT  $ORB01291.N
          2Line Orbital Elements 01291.AMSAT

HR AMSAT ORBITAL ELEMENTS FOR AMATEUR SATELLITES IN NASA FORMAT
FROM WA5QGD FORT WORTH,TX October 18, 2001
SEND SUBSCRIBE/UNSUBSCRIBE TO majordomo@amsat.org ONLY
BID: ORB01291.N

 DECODE 2-LINE ELSETS WITH THE FOLLOWING KEY:
 1 AAAAAU 00  0  0 BBBBB.BBBBBBBB  .CCCCCCCC  00000-0  00000-0 0  DDDZ
 2 AAAAA EEE.EEEE FFF.FFFF GGGGGGG HHH.HHHH III.IIII JJ.JJJJJJJJKKKKKZ
 KEY: A-CATALOGNUM B-EPOCHTIME C-DECAY D-ELSETNUM E-INCLINATION F-RAAN
 G-ECCENTRICITY H-ARGPERIGEE I-MNANOM J-MNMOTION K-ORBITNUM Z-CHECKSUM

FO-29
1 24278U 96046B   01291.56767324  .00000074  00000-0  11011-3 0  4501
2 24278  98.5242 139.9396 0351699  42.1191 320.6416 13.52787864255326

 ■ 軌道要素2:「jamsat−keps:1043」より
        SB KEPS @ AMSAT  $ORB01291.O
        Orbital Elements  01291.OSCAR

HR AMSAT ORBITAL ELEMENTS FOR OSCAR SATELLITES
FROM WA5QGD FORT WORTH,TX October 18, 2001
SEND SUBSCRIBE/UNSUBSCRIBE TO majordomo@amsat.org ONLY
BID: ORB01291.O
TO ALL RADIO AMATEURS BT

Satellite: FO-29
Catalog number: 24278
Epoch time:      01291.56767324
Element set:     450
Inclination:       98.5242 deg
RA of node:       139.9396 deg
Eccentricity:    0.0351699
Arg of perigee:    42.1191 deg
Mean anomaly:     320.6416 deg
Mean motion:   13.52787864 rev/day
Decay rate:        7.4e-07 rev/day^2
Epoch rev:           25532
Checksum:              329

-------------------  FO-29(JAS-2)のテレメトリに関する情報  ---------------------- 
 
2)上記10月19日(金)のテレメトリの最終行を分析しておきます.

AS25545C1  19OCT2001
18:44-18:59(JST)
FREQ. 435.802-.788MHz

HI HI AE C7 88 55 00 D4 81 35 09 1A 43 59 5D 5F 91 8F B0 6D 96 94 8F 8F 8F 

テレメトリ   内 容         換算算値 単 位
3C	磁気センサーZ軸=	32843.1	[nT]
3D	磁気センサX軸	=	43627.4	[nT]
4A	太陽電池発生電流=	 911.8	[mA]
4B	B充放電電流	=       -138.0	[mA]
4C	B端子電圧	=	   15.6	[V]
4D	B中間端子電圧	=	    6.9	[V]
5A	バス電圧	=	   17.3	[V]
5B	JTA送信電力	=	  610.4	[mW]
5C 	構体温度1	=	   23.6	[℃]
5D	構体温度2	=	   24.4	[℃]
6A	構体温度3	=	   26.3	[℃]
6B	構体温度4	=	   26.3	[℃]
6C	Bセル温度	=	   26.3	[℃]

 ========================== FO-29(ふじ3号)のQSO情報等 ======================
   
 3)[jamsat-bb:

 ===============================================================================
   4)JARL のホームページに運用予定が記載されていましたのでご紹介します.
       ( http://www.jarl.or.jp/Japanese/3_Fuji/new/uy.htm )

       
      ふじ3号(JAS−2)の運用 

        *** 運用予定について ***


 10月1日(月) 〜 12月3日(月)アナログ系運用 

  *なお,運用予定は都合により,変更することがありますので,あらかじめご了承願います。

 照会先 : lab@jarl.or.jp

 最新の情報はテレホンサービス(03−3942−1000)をお聞きください。  
 以後の運用につきましては平成13年12月上旬にお知らせいたします。 
     
-----------------------    FO−20(JAS-1b)道要素   -------------------------
  5)
  ■ 軌道要素1 :出典はFO-29「ふじ3号」に同じ.
  
FO-20
1 20480U 90013C   01290.65084246 -.00000030  00000-0  20846-5 0 03672
2 20480 099.0473 336.1140 0540940 031.9072 331.3617 12.83298783547809
 
  ■ 軌道要素2 :出典はFO−29「ふじ3号」に同じ.
               
Satellite: FO-20
Catalog number: 20480
Epoch time:      01290.65084246
Element set:    0367
Inclination:      099.0473 deg
RA of node:       336.1140 deg
Eccentricity:    0.0540940
Arg of perigee:   031.9072 deg
Mean anomaly:     331.3617 deg
Mean motion:   12.83298783 rev/day
Decay rate:       -3.0e-07 rev/day^2
Epoch rev:           54780
Checksum:              287

 --------------------------------------------------------------------------------
 
         ■ ふじ2号/FO−20/JAS-1b ■      
            
          「ふじ2号」 現況                                                                                  
             
   JAS-1b(ふじ2号)のCWテレメトリ信号に,1997年10月12日12時(JST)の
 日本上空通過時,3桁の数字が繰り返されるはずが3個の長音の繰り返しとなっているという
 異常が発見されました。この不具合は次の通過時からは回復していましたが13日15時20分の
 通過時に再び観測されました。現在はA0の送信が続いています。衛星のアナログ系中継モード
 動作は異常が無く,正常時のテレメトリ内容からは衛星の動作に異常は認められません。従って,
 直ちに衛星のミッションに影響することは無いと予想されますので,当面はアナログ系中継
 モードを継続します。衛星は既に打ち上げてから7年8ヶ月を経ておりますので,今後は監視を
 強化する予定です。アマチュア各位のレポートをお待ちします。
 -------------------------------------------------------------------------------- 
  1997年10月14日 00時35分 確認のテレメトリ音 151 KB (A0) 
  1997年10月14日 11時10分 確認のテレメトリ音 216 KB (異常キーイング) 

  以上 JARLのホ−ムページの http://www.jarl.or.jp/Japanese/3_Fuji/new/fuji.htm

===================== FO-20 ふじ2号 のテレメトリ観測結果 ====================

  7月19日(木)19:45(JST)の観測結果では以前観測した単一周波数の
ドップラー効果で周波数がずれていくのみの状態でした。
                                         
   =============   JAS-2 (ふじ3号)と現在までの情報   ===========
  
  A.電話によるふじ3号の運用情報
      社団法人日本アマチュア連盟によるサービス
           TEL .   03− 3942 − 1000
  B.アマチュア無線FAXサービス
      JARLによるふじ3号の軌道情報(オービットカレンダー)
         FAX No.  03− 3233 −0055
  C.WWWブラウザで情報を簡単に見れる人のためにJAS−2
     ふじ3号の衛星としての運用されるまでの名前)の概要、打ち上げ
     までの状況、運用中における状況を説明したホームページを紹介し
     ておきます.
     社団法人日本アマチュア無線連盟(JARL)のホームページ

          http://www.jarl.or.jp/Japanese/3_Fuji/jasmenu.htm
 
     宇宙開発事業団(NASDA)ホームページ 
          http://www.nasda.go.jp/
         打上げ衛星 :地球観測プラットフォーム技術衛星(ADEOS) 
                       アマチュア衛星3号(JAS-2)
          http://spaceboy.nasda.go.jp/note/eisei/j/Eis15h_j.html#Eis15h_01_j
     http://spaceboy.nasda.go.jp/note/eisei/j/Eis15i_j.html        

  D.JAMSATによる軌道情報の活用
        JAMSATのホームページまたはjamsat−kepsの軌道要素より
      衛星の軌道情報を得る.
     JAMSATホームページ
               URL    http://www.jamsat.or.jp
       上記ホームページでは各地で行われるアマチュア通信衛星に関する
      ミューティングのお知らせや世界のアマチュア衛星に関する情報が
      満載されています.
 ========================================================================  
     JAMSATのメンバーのご協力によりJH6MME(高山 秀造)が
    執筆・編集を担当しております.ご指摘の意見、疑問やこのようにしたら
    というアイデアがありましたら小さなことでもかまいませんので気軽に下
    記アドレスまでご連絡ください.jamsat−newsからjas2
    infoへの転載をJH4PHW局坂井さんに担当して頂いております.  
                  E-mail : jh6mme@jamsat.or.jp : jh4phw@jamsat.or.jp
 ===============================   END  ===============================